This is the latest recevied weather packets stored in our database for station/object IU1FIL-23. If no packets are shown the sender has not sent any weather packets the latest 10 day(s).
| Time | Temp. | Humidity | Pressure | Rain* | Wind** | Luminosity | Snow |
|---|---|---|---|---|---|---|---|
| 1777472785 | 27.78° C | 33% | 1017.4 hPa | - | - | - | - |
| 1777472180 | 28.33° C | 32% | 1017.4 hPa | - | - | - | - |
| 1777471576 | 27.78° C | 33% | 1017.5 hPa | - | - | - | - |
| 1777470972 | 28.33° C | 33% | 1017.6 hPa | - | - | - | - |
| 1777470368 | 28.89° C | 32% | 1017.8 hPa | - | - | - | - |
| 1777470368 | 28.89° C | 32% | 1017.8 hPa | - | - | - | - |
| 1777469764 | 28.89° C | 33% | 1017.8 hPa | - | - | - | - |
| 1777469160 | 28.33° C | 33% | 1017.9 hPa | - | - | - | - |
| 1777468556 | 28.33° C | 33% | 1017.9 hPa | - | - | - | - |
| 1777467952 | 28.33° C | 32% | 1018 hPa | - | - | - | - |
| 1777467348 | 28.89° C | 32% | 1018 hPa | - | - | - | - |
| 1777466743 | 28.33° C | 32% | 1017.8 hPa | - | - | - | - |
| 1777466139 | 28.33° C | 32% | 1017.8 hPa | - | - | - | - |
| 1777465535 | 27.78° C | 32% | 1017.9 hPa | - | - | - | - |
| 1777464327 | 27.78° C | 33% | 1017.8 hPa | - | - | - | - |
| 1777463723 | 28.33° C | 34% | 1018 hPa | - | - | - | - |
| 1777463119 | 28.33° C | 35% | 1017.9 hPa | - | - | - | - |
| 1777462515 | 28.33° C | 34% | 1017.9 hPa | - | - | - | - |
| 1777461905 | 27.78° C | 35% | 1018 hPa | - | - | - | - |
| 1777461301 | 28.89° C | 35% | 1018.1 hPa | - | - | - | - |
| 1777460697 | 28.33° C | 38% | 1018.2 hPa | - | - | - | - |
| 1777460291 | 28.33° C | 38% | 1018.2 hPa | - | - | - | - |
| 1777459687 | 28.33° C | 39% | 1018.1 hPa | - | - | - | - |
| 1777459083 | 28.33° C | 39% | 1018.1 hPa | - | - | - | - |
| 1777458479 | 28.33° C | 42% | 1018.3 hPa | - | - | - | - |
* Rain since midnight (hover to see other rain measurements)
** Current wind speed in m/s (hover to see current wind gust speed)